This demonstration page uses our WeatherBlox Daily Observations layout. Learn more.

Left ArrowRight Arrow

47.50024, -111.30081

Hourly Observations for November 21, 2015

Temp ( °F °C ) Dew Point ( °F °C ) Humidity (%) Winds ( mph kmh ) Pressure ( in mb ) Visibility ( mi km ) Precip ( " mm )
12:53 am 00:53 Clear 22 -5.6 12 -11.1 66 66 SW 17 28 30.44 1031 10 16 0.00 0.00
1:53 am 01:53 Clear 23 -5 13 -10.6 65 65 SW 20 31 30.41 1030 10 16 0.00 0.00
2:53 am 02:53 Clear 24 -4.4 12 -11.1 60 60 SW 22 35 30.41 1030 10 16 0.00 0.00
3:53 am 03:53 Clear 24 -4.4 12 -11.1 60 60 SW 23 37 30.38 1029 10 16 0.00 0.00
4:53 am 04:53 Clear 24 -4.4 12 -11.1 60 60 SW 23 37 30.38 1029 10 16 0.00 0.00
5:53 am 05:53 Clear 25 -3.9 13 -10.6 60 60 SW 22 35 30.36 1028 10 16 0.00 0.00
6:53 am 06:53 Clear 26 -3.3 14 -10 60 60 SSW 18 30 30.34 1027 10 16 0.00 0.00
7:53 am 07:53 Sunny 27 -2.8 13 -10.6 55 55 SW 20 31 30.33 1027 10 16 0.00 0.00
8:53 am 08:53 Sunny 27 -2.8 13 -10.6 55 55 WSW 20 31 30.33 1027 10 16 0.00 0.00
9:53 am 09:53 Sunny 29 -1.7 13 -10.6 51 51 SW 24 39 30.32 1027 10 16 0.00 0.00
10:53 am 10:53 Sunny 31 -0.6 14 -10 49 49 WSW 21 33 30.31 1027 10 16 0.00 0.00
11:53 am 11:53 Sunny 33 0.6 16 -8.9 49 49 SW 16 26 30.27 1025 10 16 0.00 0.00
12:53 pm 12:53 Sunny 35 1.7 17 -8.3 48 48 SW 15 24 30.23 1024 10 16 0.00 0.00
1:53 pm 13:53 Sunny 37 2.8 18 -7.8 46 46 WSW 18 30 30.20 1023 10 16 0.00 0.00
2:53 pm 14:53 Sunny 37 2.8 19 -7.2 48 48 SW 16 26 30.16 1021 10 16 0.00 0.00
3:53 pm 15:53 Sunny 36 2.2 17 -8.3 46 46 WSW 17 28 30.16 1021 10 16 0.00 0.00
4:53 pm 16:53 Clear 31 -0.6 16 -8.9 54 54 SW 12 19 30.16 1022 10 16 0.00 0.00
5:53 pm 17:53 Clear 29 -1.7 14 -10 54 54 SW 15 24 30.15 1021 10 16 0.00 0.00
6:53 pm 18:53 Clear 29 -1.7 15 -9.4 56 56 SW 14 22 30.14 1021 10 16 0.00 0.00
7:53 pm 19:53 Clear 31 -0.6 16 -8.9 54 54 SW 16 26 30.11 1020 10 16 0.00 0.00
8:53 pm 20:53 Clear 31 -0.6 17 -8.3 56 56 SW 16 26 30.11 1020 10 16 0.00 0.00
9:53 pm 21:53 Clear 33 0.6 17 -8.3 52 52 SW 17 28 30.10 1019 10 16 0.00 0.00
10:53 pm 22:53 Clear 32 0 18 -7.8 56 56 SSW 16 26 30.10 1019 10 16 0.00 0.00
11:53 pm 23:53 Clear 33 0.6 19 -7.2 56 56 SW 18 30 30.08 1019 10 16 0.00 0.00

Powered by AerisWeather